Regional Weather Roundup
Issued by NWS

Home | Current Version | Previous Version | Graphics & Text | Print | Product List | Glossary On
Versions: 1 2 3 4 5 6 7 8 9 10 11 12 13 14 15 16 17 18 19 20 21 22 23 24 25 26 27 28 29 30 31 32 33 34 35 36 37 38 39 40 41 42 43 44 45 46 47 48 49 50
240
ASUS45 KTFX 272210
RWRMT
MONTANA REGIONAL WEATHER ROUNDUP
NATIONAL WEATHER SERVICE GREAT FALLS MT
400 PM MDT SAT MAY 27 2017

NOTE: "FAIR" INDICATES FEW OR NO CLOUDS BELOW 12000 FEET WITH NO
SIGNIFICANT WEATHER AND/OR OBSTRUCTIONS TO VISIBILITY.

MTZ001>007-043-272300-
WEST OF THE DIVIDE

CITY           SKY/WX    TMP DP  RH WIND       PRES   REMARKS
KALISPELL      SUNNY     74  44  34 SE10      30.11F
MISSOULA       MOSUNNY   75  38  26 VRB3      30.15F
BUTTE          CLOUDY    64  28  25 NW9G20    30.23S
MULLAN PASS    SUNNY     59  32  36 VRB3      30.28S
ANACONDA         N/A     66  30  26 NW6       30.20S
DEER LODGE       N/A     68  36  30 N8        30.21S
EUREKA           N/A     77  37  24 E6        30.08F
HAMILTON         N/A     72  34  25 E3        30.17F
PLAINS           N/A     78  44  29 S7        30.12S
RONAN            N/A     74  40  29 W3        30.18F
$$

MTZ008-052>055-272300-
SOUTHWEST MONTANA

CITY           SKY/WX    TMP DP  RH WIND       PRES   REMARKS
BOZEMAN        CLOUDY    66  36  32 W7        30.18R
DILLON         CLOUDY    66  35  31 SW9       30.21S
ENNIS          PTSUNNY   66  30  26 VRB7G14   30.26S
THREE FORKS      N/A     70  39  32 SE3       30.15R
TWIN BRIDGES     N/A     67  32  27 CALM      30.17S
$$

MTZ009-010-012-014-046-048-049-054-272300-
EAST SLOPES AND CENTRAL MONTANA

CITY           SKY/WX    TMP DP  RH WIND       PRES   REMARKS
CUT BANK       MOSUNNY   75  36  24 NW12      30.09R
GREAT FALLS    MOSUNNY   75  34  22 W13       30.09S
MALMSTROM AFB  MOSUNNY   73  34  23 NW13G20   30.09S
HELENA         MOSUNNY   72  34  24 VRB7      30.14S
CHOTEAU          N/A     73  32  21 W7G16     30.13S
CONRAD           N/A     74  43  32 SW18      30.11R
FAIRFIELD        N/A     74  30  19 W15       30.10S
$$

MTZ011-013-016-021-045-047-050-051-272300-
NORTH CENTRAL MONTANA

CITY           SKY/WX    TMP DP  RH WIND       PRES   REMARKS
HAVRE          MOSUNNY   79  32  18 NW16G22   30.00S
LEWISTOWN      CLOUDY    68  39  34 NW12      30.10R
N BAR RANCH      N/A     68  36  30 NW26G37   30.11S
CHINOOK          N/A     79  30  17 W12       29.97S
FORT BENTON      N/A     77  34  20 CALM      30.03S
$$

MTZ017>020-022>027-061-062-272300-
NORTHEAST MONTANA

CITY           SKY/WX    TMP DP  RH WIND       PRES   REMARKS
GLASGOW        CLOUDY    76  35  22 NW22G31   29.92R
JORDAN           N/A     76  31  19 NW20G31   29.95R
SIDNEY         CLOUDY    75  36  24 N25G33    29.86F
WOLF POINT     CLOUDY    75  40  28 W21G37    29.89F
MALTA          PTSUNNY   77  34  20 NW17G24   29.94S
PLENTYWOOD       N/A     72  34  25 NW28G47   29.82R
POPLAR           N/A     70  43  37 NW17      29.88R
SCOBEY           N/A     74  36  25 W30       29.89S
$$

MTZ028>42-056>058-272300-
SOUTHCENTRAL AND SOUTHEAST MONTANA

CITY           SKY/WX    TMP DP  RH WIND       PRES   REMARKS
BAKER          CLOUDY    69  38  32 W29G39    29.92F
BILLINGS       CLOUDY    74  36  25 W13       30.08F
LIVINGSTON     CLOUDY    67  36  31 W7        30.17R
MILES CITY     LGT RAIN  71  40  32 NW13G23   29.94S
BIG TIMBER     MOSUNNY   68  37  32 W17       30.17S
EKALAKA          N/A     67  36  31 W16       29.95F
FORSYTH          N/A     70  39  32 W9G16     29.98S
LAUREL           N/A     70  37  29 W12       30.08F
ROUNDUP          N/A     72  33  23 W20       29.97S
$$

REGIONAL REPORTS...DAKOTAS

CITY           SKY/WX    TMP DP  RH WIND       PRES   REMARKS
WILLISTON      MOSUNNY   69  45  41 NE12      29.84S
MINOT          LGT RAIN  53  49  86 NW21G30   29.83R
DICKINSON      SUNNY     72  32  23 W17G32    29.83S
BEACH          PTSUNNY   68  37  32 NW35G43   29.95R
CROSBY           N/A     64  46  52 NW12      29.83S
TIOGA            N/A     57  55  94 NE3       29.85S
WATFORD CITY     N/A     72  37  28 W21G32    29.83S
BISMARCK       MOSUNNY   76  36  23 W18G24    29.79F
GRAND FORKS    MOSUNNY   78  40  25 SW14      29.70F
FARGO          MOSUNNY   78  38  23 SW17G23   29.73F
BUFFALO SD       N/A     72  37  28 NW21      29.88S
RAPID CITY     MOSUNNY   72  35  25 NW16G29   29.99F
$$

REGIONAL REPORTS...WYOMING/IDAHO/WASHINGTON

CITY           SKY/WX    TMP DP  RH WIND       PRES   REMARKS
GILLETTE       CLOUDY    66  35  31 NW16G26   30.09S
SHERIDAN       PTSUNNY   66  39  37 N18G33    30.10R
BUFFALO WY     CLOUDY    65  32  29 N9G28     30.13S
CODY           CLOUDY    63  29  27 CALM      30.19R
YELLOWSTONE LA   N/A     46  34  62 CALM      30.33R
IDAHO FALLS    MOSUNNY   66  41  40 W9        30.25S
SALMON         CLOUDY    70  34  26 NE5       30.17S
BOISE          SUNNY     76  36  23 N6        30.16F
SPOKANE        MOSUNNY   77  41  27 SW9       30.14F
$$

REGIONAL REPORTS...ALBERTA

CITY           SKY/WX    TMP DP  RH WIND       PRES   REMARKS
EDMONTON       MOSUNNY   75  41  29 N12G18    29.98R
CALGARY        MOSUNNY   75  36  23 W7G18     30.04S
LETHBRIDGE     PTSUNNY   77  41  27 W12G21    30.03S
MEDICINE HAT   PTSUNNY   79  39  24 NW14G22   29.95S
CARDSTON         N/A     73  37  27 W8G18       N/A
MILK RIVER       N/A     75  41  29 NW16G26     N/A
$$

REGIONAL REPORTS...SASKATCHEWAN

CITY           SKY/WX    TMP DP  RH WIND       PRES   REMARKS
SWIFT CURRENT  MOSUNNY   73  36  25 NW26G37   29.89R
REGINA         MOSUNNY   70  36  28 N24G37    29.81R
SASKATOON      MOSUNNY   72  30  21 N23G30    29.85R
CYPRESS HILLS    N/A     66  30  26 NW10G20     N/A
VAL MARIE        N/A     77  32  19 NW23G31     N/A
ROCKGLEN         N/A     70  36  28 NW23G33     N/A
$$




USA.gov is the U.S. government's official web portal to all federal, state and local government web resources and services.